Find Starlink 4694

NORAD ID: 53708 Int'l Des: 2022-107 Owner: SPXS Country: US Constellation: starlink operational
LEOCIRCULAR

Live Position

Loading 3D Globe...

About Starlink 4694

Description loading...

Upcoming Passes

Passes for default location (London). Set your location on the main map for personalized predictions.

Altitude History

Loading altitude history...

Two-Line Element Set

1 53708U 22107J 26126.56525568 .00000801 00000-0 68431-4 0 9999
2 53708 53.2195 329.1731 0001263 96.7318 263.3817 15.08830612203809
Epoch: May 6, 2026 • Age: 3 hours

Current Status

Altitude 544.6 km
Velocity 7.60 km/s
Sub-Earth Point 48.96°N, 93.21°W
Launch Date Sep 5, 2022
Age 3.6 years
Type internet

Technical Details

Classification Payload
Mass 305.00 kg
Dry Mass 290.00 kg
Total Mass 305.00 kg
Length 0.20 m
Diameter 2.80 m
Span 9.00 m
Shape Box + pan
Manufacturer SPXS
Bus Type Starlink
Phase Status In Orbit
Owner/State SPXS/US

Most Searched